Location: Fort B�tard
(50.9044°N, 2.0679°E)
Time: 22:37:09
(UTC+00:00)

Daily predictions for brighter satellites

Satellite Brightness Start Highest point End
(mag) Time Altitude Azimuth Time Altitude Azimuth Time Altitude Azimuth
Cosmos 1898 Rocket 4.1 18:09:45 10° SW 18:14:53 62° WNW 18:20:04 10° NNE
Meteor 2-9 Rocket 4.4 18:11:15 10° SSW 18:17:06 88° WNW 18:22:51 10° NNE
Cosmos 1300 Rocket 4.0 18:16:20 10° SSE 18:20:29 42° E 18:24:41 10° NNE
CENTAUR R/B 3.2 18:16:15 10° NW 18:24:08 76° NE 18:32:54 10° SE
Sich 1 Rocket 3.6 18:20:17 10° S 18:24:47 71° E 18:29:21 10° NNE
NOSS 2-2 (E) 3.3 18:21:33 10° SW 18:25:07 82° NW 18:29:19 10° NE
Cosmos 1833 Rocket 3.9 18:20:49 10° NNW 18:25:30 25° NE 18:30:07 10° E
Cosmos 2298 Rocket 4.3 18:21:44 10° S 18:26:50 48° ESE 18:31:58 10° NNE
Cosmos 1975 3.9 18:24:04 10° SSW 18:28:03 52° WNW 18:32:03 10° N
Resurs 01 Rocket 3.7 18:26:50 10° ENE 18:28:08 11° NE 18:29:25 10° NE
Iridium 4 Rocket 4.1 18:24:02 10° SSW 18:29:15 68° W 18:34:57 10° N
CSL-04 Debris 4.1 18:26:00 10° SSE 18:31:22 77° ENE 18:36:48 10° NNW
Helios 1A Rocket 4.4 18:29:18 10° S 18:33:13 42° W 18:37:11 10° NNW
CSL-04 Rocket 3.7 18:27:53 10° SSE 18:33:20 77° ENE 18:38:54 10° NNW
Cosmos 1025 Rocket 3.0 18:29:00 10° N 18:33:24 70° ENE 18:37:47 10° SSE
ATLAS 2AS CENTAUR R/B 3.8 18:28:38 10° SSE 18:34:58 27° ESE 18:41:18 10° ENE
NOSS 2-2 (D) 3.2 18:31:26 10° SW 18:34:58 83° NW 18:39:06 10° NE
Okean 2 Rocket 3.1 18:30:36 10° S 18:35:00 59° E 18:39:24 10° NNE
Cosmos 1937 Rocket 4.2 18:29:53 10° SW 18:35:02 58° WNW 18:40:11 10° NNE
YAOGAN 1 2.9 18:31:35 10° S 18:35:54 73° WSW 18:40:15 10° NNW
ATLAS 3B R/B 3.3 18:29:56 10° NW 18:36:24 44° NNE 18:42:35 12° E
SKYMED 2 4.3 18:33:03 10° N 18:37:20 58° WNW 18:41:36 10° SSW
SWAS 4.4 18:34:53 10° NNW 18:39:13 83° ENE 18:43:30 10° SSE
Abrixas rocket 2.9 18:37:19 10° W 18:39:58 36° SSW 18:42:11 13° SE
CREW DRAGON DEMO-1 DEB 3.3 18:38:51 10° W 18:41:48 51° SSW 18:44:16 14° SE
Cosmos 1513 Rocket 4.4 18:36:26 10° S 18:42:37 73° E 18:48:45 10° NNE
Cosmos 1536 Rocket 3.6 18:38:44 10° N 18:43:12 66° ENE 18:47:38 10° SSE
Cosmos 1125 Rocket 3.8 18:42:27 10° S 18:47:29 46° ESE 18:52:33 10° NE
SJ-6B 3.5 18:48:31 14° SE 18:51:13 31° ENE 18:54:36 10° N
USA 238 DEB 4.3 18:46:21 10° NW 18:53:27 64° SW 19:00:49 10° SSE
USA 238 4.3 18:46:27 10° NW 18:53:34 65° SW 19:00:56 10° SSE
CZ-4 R/B 2.9 18:49:36 10° S 18:53:35 41° W 18:57:33 10° NNW
Cosmos 2150 Rocket 4.0 18:48:59 10° SSW 18:54:22 73° ESE 18:59:50 10° NNE
SJ-11-01 4.4 18:49:52 10° SSE 18:54:34 81° WSW 18:59:18 10° NNW
Cosmos 1674 2.7 18:51:46 10° N 18:55:35 59° ENE 18:59:22 10° SSE
CZ-2C R/B 3.6 18:50:18 10° S 18:55:42 70° WSW 19:01:24 10° NNW
Cosmos 1464 Rocket 4.0 18:49:49 10° S 18:55:58 86° E 19:02:13 10° N
Cosmos 2026 Rocket 4.5 18:50:05 10° N 18:56:08 42° ENE 19:02:09 10° SE
Cosmos 1092 Rocket 4.1 18:50:24 10° N 18:56:26 52° ENE 19:02:28 10° SSE
Okean-O 4.4 18:53:26 10° SSW 18:57:29 35° W 19:01:36 10° NNW
Cosmos 2285 Rocket 4.2 18:52:14 10° S 18:58:14 48° ESE 19:04:19 10° NNE
MOS 1 Rocket 3.0 18:57:54 10° NNE 19:02:18 65° E 19:06:33 10° S
FREGAT/IRIS 3.0 19:04:41 30° E 19:04:55 31° ENE 19:07:17 10° N
ARGOS 3.2 19:05:52 10° SSE 19:11:15 83° WSW 19:16:41 10° NNW
CZ-2C R/B 3.0 19:07:08 10° NNE 19:12:27 44° E 19:17:47 10° S
Cosmos 1340 Rocket 3.7 19:15:11 26° E 19:15:14 26° E 19:18:37 10° NE
Cosmos 1733 3.6 19:13:48 13° SSE 19:16:54 39° E 19:20:29 10° NNE
Cosmos 2151 Rocket 3.8 19:13:12 10° SSW 19:17:40 75° WNW 19:22:13 10° N
Lacrosse 5 rocket 2.5 19:13:55 10° WNW 19:18:02 39° N 19:20:43 20° ENE
MOS 1 4.3 19:13:05 10° SSE 19:18:41 68° ENE 19:24:22 10° NNW
Cosmos 2082 Rocket 3.1 19:13:42 10° NNW 19:18:46 33° NE 19:21:17 23° E
BREEZE-M DEB (TANK) 4.2 19:19:09 10° W 19:22:10 31° SSW 19:27:36 14° SE
DMSP B5D2-2 4.4 19:17:15 10° NNE 19:22:19 44° E 19:27:21 10° S
BREEZE-M R/B 4.1 19:13:03 10° WSW 19:23:02 52° SSE 19:24:25 32° ESE
Cosmos 494 Rocket 4.5 19:18:35 10° NNW 19:23:47 61° WSW 19:28:58 10° S
Meteor 1-15 Rocket 4.2 19:22:44 10° S 19:28:24 86° E 19:34:13 10° NNE
Cosmos 1805 3.1 19:24:52 10° S 19:28:45 75° E 19:32:41 10° NNE
OBJECT-B 1.2 19:28:48 42° ENE 19:28:53 43° ENE 19:32:01 10° N
Ariane Rocket 3.0 19:28:06 10° SSE 19:33:06 86° WSW 19:38:13 10° NNW
SL-08 RB Rocket 3.9 19:28:37 10° S 19:33:09 70° WSW 19:37:42 10° NNW
H-2A R/B 3.3 19:29:58 10° SSW 19:34:42 41° W 19:39:36 10° NNW
Cosmos 1269 Rocket 4.1 19:30:26 10° NNW 19:35:47 83° WSW 19:39:33 20° SSE
Cosmos 1626 1.9 19:37:11 10° N 19:40:55 82° E 19:42:02 43° SSE
Okean 1-7 Rocket 4.0 19:36:48 10° N 19:41:10 43° ENE 19:41:50 40° E
Terra 4.0 19:42:51 11° NE 19:42:51 11° NE 19:44:09 10° NNE
MetOp-A 4.1 19:40:20 16° SSE 19:44:38 86° WSW 19:50:03 10° NNW
USA 186 2.9 19:42:34 18° SSW 19:44:40 44° W 19:47:52 10° NNW
COSMOS 2406 3.1 19:39:18 10° NNW 19:45:01 87° ENE 19:47:55 30° SSE
Cosmos 1455 Rocket 4.1 19:47:18 28° ENE 19:47:18 28° ENE 19:50:01 10° NNE
Cosmos 1844 Rocket 3.2 19:41:48 10° SW 19:47:18 59° NW 19:52:52 10° NNE
ISS -3.8 19:44:11 10° W 19:47:34 76° N 19:47:46 72° NE
ATLAS CENTAUR R/B 3.9 19:48:55 10° N 19:49:26 10° N 19:49:58 10° NNE
Cosmos 2278 Rocket 2.5 19:46:15 10° S 19:51:32 39° ESE 19:56:40 10° NE
Lacrosse 4 Rocket 1.6 19:48:40 10° NNW 19:52:38 48° NE 19:52:52 48° ENE
Cosmos 1844 4.1 19:49:19 10° SW 19:54:58 64° NW 20:00:34 10° NNE
Meteor 2-5 Rocket 4.1 19:49:38 10° NNW 19:55:15 65° W 20:00:46 11° S
Meteor 1-22 Rocket 4.3 19:50:22 10° S 19:56:17 77° E 20:02:24 10° NNE
Meteor 1-24 Rocket 3.8 19:52:02 10° NNW 19:57:37 78° W 20:01:37 20° S
Cosmos 909 Rocket 4.2 19:51:05 10° NW 19:57:42 61° NE 19:59:55 39° ESE
Exosat Rocket 3.7 19:54:06 10° SW 19:59:19 70° WNW 20:04:24 10° NNE
Cosmos 2266 Rocket 4.4 19:54:03 10° N 19:59:44 40° ENE 20:00:34 38° E
SL-14 R/B 3.5 19:56:55 10° NNW 20:00:51 70° W 20:01:55 45° SSW
Okean 1 Rocket 3.7 19:57:00 10° SSW 20:01:25 58° WNW 20:05:53 10° N
Meteor 2-19 Rocket 4.4 19:55:40 10° N 20:01:45 64° ENE 20:03:47 41° SE
NOSS 3-4 (A) 3.3 19:56:26 10° SSW 20:02:20 74° SE 20:08:44 10° NE
NOSS 3-4 (C) 3.3 19:56:32 10° SSW 20:02:27 74° SE 20:08:50 10° NE
Resurs 01 Rocket 1.5 20:03:26 63° E 20:03:47 66° ENE 20:08:13 10° N
Cosmos 1833 Rocket 2.7 20:04:25 10° NNW 20:10:07 83° WSW 20:11:54 46° SSE
Cosmos 1470 4.4 20:12:29 24° NNE 20:12:29 24° NNE 20:14:09 10° NNE
Cosmos 1766 4.2 20:06:48 10° SSW 20:10:37 48° WNW 20:14:29 10° N
CZ-2C R/B 4.2 20:06:37 10° NNE 20:09:58 44° NE 20:09:58 44° NE
Cosmos 2251 Rocket 3.5 20:07:40 10° NNW 20:13:02 66° ENE 20:13:44 59° ESE
CENTAUR R/B 4.3 20:07:17 10° NW 20:14:39 39° WSW 20:22:00 12° S
ERS-1 Rocket 4.1 20:17:39 28° NE 20:17:39 28° NE 20:21:22 10° N
IGS 5A 4.4 20:18:58 37° NNE 20:18:58 37° NNE 20:21:51 10° N
ARIANE 5 R/B 3.1 20:20:05 48° NNE 20:20:05 48° NNE 20:23:35 10° N
SPOT 3 Rocket 3.7 20:20:50 43° S 20:22:29 70° WSW 20:27:39 10° NNW
Cosmos 1634 Rocket 4.3 20:18:40 10° SSW 20:24:48 66° WNW 20:31:01 10° N
ATLAS 2AS CENTAUR R/B 2.9 20:17:11 10° SW 20:25:11 88° SE 20:33:04 10° NE
Resurs 1-3 4.2 20:26:18 44° SW 20:27:13 52° W 20:31:31 10° NNW
Landsat 7 4.1 20:27:59 55° NE 20:27:59 55° NE 20:32:07 10° N
ATLAS 3B R/B 2.9 20:20:43 10° NW 20:27:30 68° SW 20:29:50 44° SSE
Cosmos 1892 Rocket 4.2 20:23:40 10° NNW 20:27:54 53° W 20:28:35 47° SW
Meteor 1-21 Rocket 4.2 20:27:10 10° N 20:32:57 69° ENE 20:33:15 68° E
SPOT 5 4.0 20:33:48 35° NE 20:33:48 35° NE 20:37:55 10° N
Meteor 2-10 4.5 20:34:18 49° NE 20:34:18 49° NE 20:38:27 10° NNE
Cosmos 1655 Rocket 3.9 20:30:12 10° N 20:36:32 88° E 20:37:50 60° SSE
Cosmos 1461 3.9 20:35:27 10° NW 20:39:30 46° NNE 20:39:30 46° NNE
CZ-2C R/B 4.2 20:47:37 10° N 20:52:40 37° WNW 20:57:45 10° SW
Lacrosse 5 rocket 2.5 20:53:11 10° WNW 20:56:20 45° NW 20:56:20 45° NW
MetOp-B 4.3 20:58:51 64° WSW 20:58:56 64° WSW 21:04:16 10° NNW
Cosmos 2098 Rocket 4.1 20:54:09 10° NNW 21:00:54 65° W 21:01:46 58° SW
Cosmos 2279 Rocket 4.5 20:57:29 24° SSW 21:01:19 58° WNW 21:07:31 10° N
OBJECT-B 3.9 21:01:59 14° W 21:01:59 14° W 21:03:17 10° WNW
Cosmos 2082 Rocket 2.5 20:57:39 10° NW 21:03:08 58° WSW 21:03:08 58° WSW
Spot 2 Rocket 3.9 21:05:26 60° NW 21:05:26 60° NW 21:09:39 10° NNW
Meteor 2-21 4.5 21:03:58 10° N 21:09:42 75° NNE 21:09:42 75° NNE
Cosmos 1809 Rocket 4.4 21:08:18 10° NNW 21:14:13 79° NW 21:14:13 79° NW
Terra 3.4 21:21:44 30° N 21:21:44 30° N 21:24:15 10° N
Cosmos 407 Rocket 4.5 21:23:01 10° NNW 21:26:26 43° NNW 21:26:26 43° NNW
SPOT 1/Viking Rocket 4.5 21:29:22 45° WNW 21:29:22 45° WNW 21:33:19 10° NNW
ATLAS CENTAUR R/B 4.2 21:26:52 10° NNW 21:27:26 13° NNW 21:27:26 13° NNW
Lacrosse 4 Rocket 4.0 21:27:47 10° WNW 21:29:10 17° WNW 21:29:10 17° WNW
Cosmos 2278 Rocket 3.2 21:33:01 28° WSW 21:35:30 44° NW 21:40:57 10° NNE
Resurs 01 Rocket 4.1 21:41:01 17° W 21:41:01 17° W 21:43:40 10° NW
USA 229 DEB 4.5 21:41:48 10° NW 21:48:36 46° NNE 21:49:03 45° NE
USA 229 4.5 21:41:54 10° NW 21:48:42 45° NNE 21:49:09 45° NE
ATLAS 2AS CENTAUR R/B 4.0 22:09:33 10° W 22:17:03 42° NNW 22:24:17 10° NE
Cosmos 1943 Rocket 4.5 22:24:03 15° NNE 22:24:03 15° NNE 22:25:01 10° NNE
NOSS 3-1 (C) 4.3 22:31:43 10° NW 22:37:24 59° NNW 22:37:24 59° NNW
CZ-4C R/B 4.2 22:45:17 25° NNE 22:45:17 25° NNE 22:48:09 10° NE
COSMOS 2455 4.4 22:57:42 31° NNW 22:57:42 31° NNW 23:01:57 10° NNE
Cosmos 2297 Rocket 4.2 22:53:15 10° NNW 22:56:26 22° NNE 22:56:26 22° NNE
Cosmos 2369 Rocket 4.4 23:10:31 20° NNE 23:10:31 20° NNE 23:12:12 10° NNE
SL-16 R/B 4.3 23:50:36 25° NE 23:50:36 25° NE 23:54:58 10° N
